Regional Weather Roundup
Issued by NWS

Home | Current Version | Previous Version | Graphics & Text | Print | Product List | Glossary On
Versions: 1 2 3 4 5 6 7 8 9 10 11 12 13 14 15 16 17 18 19 20 21 22 23 24 25 26 27 28 29 30 31 32 33 34 35 36 37 38 39 40 41 42 43 44 45 46 47 48 49 50
655
ASUS45 KCYS 282110
RWRWY

WYOMING REGIONAL WEATHER ROUNDUP
NATIONAL WEATHER SERVICE CHEYENNE WY
300 PM MDT WED SEP 28 2016

NOTE:  "FAIR" INDICATES FEW OR NO CLOUDS BELOW 12,000 FEET
WITH NO SIGNIFICANT WEATHER AND/OR OBSTRUCTIONS TO VISIBILITY.

WYZ001-282200-
YELLOWSTONE NATIONAL PARK

CITY           SKY/WX    TMP DP  RH WIND       PRES   REMARKS
LK YELLOWSTONE   N/A     68  32  26 MISG      30.39F
W YELLOWSTONE  NOT AVBL

$$
WYZ002>013-054>058-071-098>099-282200-
NORTHERN WYOMING

CITY           SKY/WX    TMP DP  RH WIND       PRES   REMARKS
JACKSON        SUNNY     73  34  23 S6        30.29F
CODY           FAIR      73  46  38 E9        30.25F
GREYBULL         N/A     77  45  32 SE6       30.21F
WORLAND        FAIR      77  47  34 NE5       30.22F
SHERIDAN       FAIR      80  37  21 SE15G24   30.22F
BUFFALO        NOT AVBL
GILLETTE       FAIR      77  43  29 SE6       30.28F
HULETT         FAIR      79  43  27 E8        30.30S
NEWCASTLE      FAIR      79  36  21 CALM      30.28S

$$
WYZ014>020-022>026-101>103-282200-
CENTRAL WYOMING

CITY           SKY/WX    TMP DP  RH WIND       PRES   REMARKS
BIG PINEY      FAIR      73  30  20 SW13      30.35F
PINEDALE       FAIR      72  27  18 CALM      30.36F
DUBOIS         FAIR      66  32  28 SE14G23   30.36F
LANDER         FAIR      75  42  30 E10       30.27F
RIVERTON       FAIR      73  42  32 VRB5      30.29F
CASPER         FAIR      76  36  23 NE12      30.29F
DOUGLAS        FAIR      77  33  20 S6        30.30F

$$
WYZ021-027>030-104>119-282200-
SOUTHERN WYOMING

CITY           SKY/WX    TMP DP  RH WIND       PRES   REMARKS
EVANSTON       FAIR      72  33  24 CALM      30.32F
FORT BRIDGER   FAIR      74  30  19 CALM      30.36F
ROCK SPRINGS   FAIR      73  27  18 SE3       30.33F
DIXON          FAIR      79  33  18 W9        30.32F
RAWLINS        FAIR      76  27  16 S8        30.34F
SARATOGA       FAIR      77  28  16 NW13      30.35R
LARAMIE        FAIR      72  30  21 SE15      30.37F
CHEYENNE       FAIR      76  34  21 SE5       30.35F
TORRINGTON     FAIR      81  33  17 SE8       30.26F
PINE BLUFFS    FAIR      77  34  20 E7        30.32F

$$




USA.gov is the U.S. government's official web portal to all federal, state and local government web resources and services.